Tracking 28790 objects as of 18-Apr-2024
HD Live streaming from Space Station
objects crossing your sky now

OSCAR 15 (UOSAT 4)

Track OSCAR 15 (UOSAT 4) now!
10-day predictions
OSCAR 15 (UOSAT 4) is classified as:


NORAD ID: 20438
Int'l Code: 1990-005C
Perigee: 786.7 km
Apogee: 801.9 km
Inclination: 98.9 °
Period: 100.6 minutes
Semi major axis: 7165 km
RCS: 0.311 m2 (medium)
Launch date: January 22, 1990
Source: United Kingdom (UK)
Launch site: FRENCH GUIANA (FRGUI)

Uplink (MHz):
Downlink (MHz): 435.120
Beacon (MHz): 435.120
Mode: CW
Call sign:
Status: Reentered

Your satellite tracking list
Your tracking list is empty




NASA's NSSDC Master Catalog

Two Line Element Set (TLE):
1 20438U 90005C   24108.70965861  .00000276  00000-0  12150-3 0  9995
2 20438  98.8912 139.9756 0010581 138.5598 338.3642 14.31364038787127
Source of the keplerian elements: AFSPC